Date String (YYYY-MM-DD hh:mm:ss) UTC,Instrument flags,Ambient pressure (hPa),Sample flow (lpm),Bypass flow (lpm),Sample temperature (°C),Ambient temperature (°C),ASC tube jacket temperature (°C),LED temperature (°C),Box temperature (°C),Sample RH (%),Span deviation,Mass concentration (μg/m³),Mass concentration (μg/m³),Mass concentration (μg/m³)
DateTimeUTC,F1_M11,P_M11,Q1_M11,Q2_M11,T1_M11,T2_M11,T3_M11,T4_M11,T5_M11,U1_M11,ZSPAN_M11,X0_M11,X2_M11,X1_M11
2021-10-31 01:00:00,,0828.6,5.00,0.00,30.4,29.5,00.0,39.4,32.2,15.9,0000.0,0011.02,0003.02,0001.79
2021-10-31 01:01:00,,0828.9,4.98,0.00,30.4,29.5,00.0,39.4,32.2,16.0,0000.0,0010.74,0003.01,0001.74
2021-10-31 01:02:00,,0829.2,5.00,0.00,30.4,27.8,00.0,39.4,31.9,16.0,0000.0,0012.09,0002.96,0001.67
2021-10-31 01:03:00,,0829.2,5.00,0.00,30.2,26.3,00.0,39.3,31.6,16.1,0000.0,0013.29,0002.83,0001.57
2021-10-31 01:04:00,,0829.2,5.01,0.00,30.1,26.2,00.0,39.3,31.5,16.3,0000.0,0013.72,0002.73,0001.46
2021-10-31 01:05:00,,0829.2,5.00,0.00,30.0,26.6,00.0,39.2,31.4,16.4,0000.0,0013.62,0002.61,0001.35
2021-10-31 01:06:00,,0829.0,4.99,0.00,29.9,27.1,00.0,39.2,31.4,16.5,0000.0,0013.74,0002.46,0001.24
2021-10-31 01:07:00,,0828.7,5.01,0.00,29.9,27.4,00.0,39.1,31.4,16.6,0000.0,0013.60,0002.33,0001.16
2021-10-31 01:08:00,,0828.7,5.00,0.00,29.9,27.8,00.0,39.1,31.4,16.6,0000.0,0012.62,0002.21,0001.11
2021-10-31 01:09:00,,0829.2,5.00,0.00,29.9,28.0,00.0,39.1,31.5,16.6,0000.0,0012.75,0002.09,0001.06
2021-10-31 01:10:00,,0829.4,4.99,0.00,29.9,28.2,00.0,39.0,31.5,16.6,0000.0,0012.60,0002.00,0001.03
2021-10-31 01:11:00,,0829.0,5.00,0.00,29.9,28.4,00.0,39.0,31.6,16.6,0000.0,0012.45,0001.96,0001.01
2021-10-31 01:12:00,,0828.8,5.00,0.00,29.9,28.5,00.0,39.0,31.6,16.6,0000.0,0012.68,0001.89,0000.99
2021-10-31 01:13:00,,0828.9,5.00,0.00,29.9,28.6,00.0,39.0,31.6,16.6,0000.0,0011.70,0001.89,0000.97
2021-10-31 01:14:00,,0828.9,4.99,0.00,29.9,28.7,00.0,39.0,31.7,16.6,0000.0,0010.25,0001.95,0000.96
2021-10-31 01:15:00,,0828.9,5.00,0.00,29.9,28.8,00.0,39.0,31.7,16.6,0000.0,0010.04,0002.00,0000.97
2021-10-31 01:16:00,,0828.9,5.00,0.00,30.0,28.8,00.0,39.0,31.7,16.6,0000.0,0009.30,0002.00,0000.98
2021-10-31 01:17:00,,0828.9,5.00,0.00,30.0,28.9,00.0,39.0,31.7,16.6,0000.0,0009.31,0002.05,0000.98
2021-10-31 01:18:00,,0828.9,5.00,0.00,30.0,28.9,00.0,39.0,31.7,16.6,0000.0,0009.38,0002.11,0000.98
2021-10-31 01:19:00,,0828.9,5.01,0.00,30.0,28.9,00.0,39.0,31.8,16.6,0000.0,0009.39,0002.21,0000.99
2021-10-31 01:20:00,,0829.0,4.99,0.00,30.0,29.0,00.0,39.0,31.7,16.6,0000.0,0009.50,0002.22,0001.00
2021-10-31 01:21:00,,0829.0,5.00,0.00,30.0,29.0,00.0,39.0,31.7,16.6,0000.0,0009.16,0002.24,0001.00
2021-10-31 01:22:00,,0829.0,5.00,0.00,30.1,29.0,00.0,39.0,31.8,16.6,0000.0,0008.63,0002.27,0000.99
2021-10-31 01:23:00,,0829.0,5.02,0.00,30.1,29.0,00.0,39.0,31.8,16.5,0000.0,0008.60,0002.26,0000.98
2021-10-31 01:24:00,,0829.1,4.99,0.00,30.1,29.1,00.0,39.0,31.8,16.5,0000.0,0008.42,0002.27,0000.99
2021-10-31 01:25:00,,0829.1,4.99,0.00,30.1,29.1,00.0,39.1,31.9,16.5,0000.0,0008.27,0002.25,0001.00
2021-10-31 01:26:00,,0829.1,5.01,0.00,30.1,29.1,00.0,39.1,31.9,16.5,0000.0,0008.23,0002.22,0001.01
2021-10-31 01:27:00,,0829.1,5.00,0.00,30.1,29.1,00.0,39.1,31.9,16.5,0000.0,0008.19,0002.15,0000.99
2021-10-31 01:28:00,,0829.1,5.00,0.00,30.1,29.1,00.0,39.1,31.9,16.5,0000.0,0008.12,0002.14,0000.99
2021-10-31 01:29:00,,0829.1,4.99,0.00,30.1,29.2,00.0,39.1,31.9,16.6,0000.0,0007.81,0002.05,0001.00
2021-10-31 01:30:00,,0829.1,5.00,0.00,30.1,29.2,00.0,39.1,31.9,16.5,0000.0,0007.63,0001.94,0001.00
2021-10-31 01:31:00,,0829.2,5.00,0.00,30.2,29.2,00.0,39.1,32.0,16.5,0000.0,0008.05,0001.89,0001.00
2021-10-31 01:32:00,,0829.2,5.00,0.00,30.2,29.2,00.0,39.1,32.0,16.5,0000.0,0007.62,0001.90,0001.01
2021-10-31 01:33:00,,0829.2,5.00,0.00,30.2,29.3,00.0,39.1,32.0,16.4,0000.0,0007.43,0001.82,0001.02
2021-10-31 01:34:00,,0829.2,5.01,0.00,30.2,29.3,00.0,39.1,32.0,16.4,0000.0,0007.64,0001.88,0001.03
2021-10-31 01:35:00,,0829.2,4.99,0.00,30.2,29.3,00.0,39.2,31.9,16.4,0000.0,0007.94,0001.87,0001.03
2021-10-31 01:36:00,,0829.3,5.00,0.00,30.2,29.3,00.0,39.2,32.0,16.4,0000.0,0008.15,0001.79,0001.02
2021-10-31 01:37:00,,0829.3,4.99,0.00,30.2,29.3,00.0,39.2,32.0,16.5,0000.0,0007.87,0001.72,0001.01
2021-10-31 01:38:00,,0829.3,5.00,0.00,30.2,29.3,00.0,39.2,31.9,16.4,0000.0,0007.90,0001.79,0001.01
2021-10-31 01:39:00,,0829.3,4.99,0.00,30.2,29.3,00.0,39.2,32.0,16.4,0000.0,0008.77,0001.79,0001.03
2021-10-31 01:40:00,,0829.2,4.99,0.00,30.2,29.3,00.0,39.2,32.0,16.4,0000.0,0008.92,0001.85,0001.04
2021-10-31 01:41:00,,0829.2,5.01,0.00,30.2,29.3,00.0,39.2,32.0,16.5,0000.0,0009.12,0001.92,0001.05
2021-10-31 01:42:00,,0829.2,5.00,0.00,30.2,29.3,00.0,39.2,32.0,16.5,0000.0,0008.83,0001.99,0001.05
2021-10-31 01:43:00,,0829.2,5.00,0.00,30.2,29.3,00.0,39.2,32.0,16.5,0000.0,0008.46,0002.03,0001.05
2021-10-31 01:44:00,,0829.3,4.99,0.00,30.2,29.3,00.0,39.2,32.0,16.5,0000.0,0009.06,0002.12,0001.07
2021-10-31 01:45:00,,0829.3,5.01,0.00,30.3,29.3,00.0,39.3,32.0,16.5,0000.0,0009.31,0002.11,0001.08
2021-10-31 01:46:00,,0829.3,5.00,0.00,30.3,29.3,00.0,39.3,32.1,16.5,0000.0,0009.15,0002.10,0001.09
2021-10-31 01:47:00,,0829.2,5.00,0.00,30.3,29.3,00.0,39.3,32.1,16.5,0000.0,0008.75,0002.10,0001.10
2021-10-31 01:48:00,,0829.2,5.01,0.00,30.3,29.4,00.0,39.3,32.0,16.5,0000.0,0008.97,0002.13,0001.11
2021-10-31 01:49:00,,0829.2,5.02,0.00,30.3,29.4,00.0,39.3,32.0,16.5,0000.0,0009.31,0002.11,0001.12
2021-10-31 01:50:00,,0829.2,5.00,0.00,30.3,29.4,00.0,39.3,32.0,16.5,0000.0,0008.35,0002.08,0001.13
2021-10-31 01:51:00,,0829.3,4.99,0.00,30.3,29.4,00.0,39.3,32.1,16.5,0000.0,0008.18,0002.07,0001.11
2021-10-31 01:52:00,,0829.2,4.99,0.00,30.3,29.4,00.0,39.3,32.1,16.5,0000.0,0008.44,0002.03,0001.10
2021-10-31 01:53:00,,0829.2,5.00,0.00,30.3,29.4,00.0,39.3,32.1,16.5,0000.0,0008.53,0001.94,0001.10
2021-10-31 01:54:00,,0829.3,5.00,0.00,30.3,29.4,00.0,39.3,32.1,16.4,0000.0,0008.95,0001.89,0001.09
2021-10-31 01:55:00,,0829.3,5.01,0.00,30.3,29.4,00.0,39.3,32.1,16.4,0000.0,0008.96,0001.85,0001.08
2021-10-31 01:56:00,,0829.3,5.00,0.00,30.3,29.4,00.0,39.3,32.1,16.5,0000.0,0009.01,0001.80,0001.06
2021-10-31 01:57:00,,0829.3,4.99,0.00,30.3,29.4,00.0,39.3,32.1,16.5,0000.0,0009.29,0001.77,0001.06
2021-10-31 01:58:00,,0829.3,5.00,0.00,30.3,29.4,00.0,39.3,32.1,16.5,0000.0,0010.55,0001.80,0001.06
2021-10-31 01:59:00,,0829.3,5.00,0.00,30.3,29.4,00.0,39.3,32.1,16.5,0000.0,0011.43,0001.85,0001.06
